STARLINK-1553, 46348

Orbit data source: Space-Track

STARLINK-1553, 46348 is a payload satellite owned by SpaceX/Seattle (US) in LEO that was launched on Thu, 03 Sep 2020 UTC via an FALCON 9 launch vehicle from the Air Force Eastern Test Range (AFETR). Payload-class satellites include a variety of spacecraft equipped with specific instruments for various scientific and technological missions. These include communications satellites like Starlink; space stations such as the ISS; scientific satellites like the Hubble; Earth observation satellites from companies like Planet Labs, Umbra, and HawkEye 360; GPS; miniature CubeSats for education and research; and military/defense satellites.

Loading next visibility...
Identifier
46348, 2020-062Z
Orbit
LEO
Country
Flag of USUS
Related business
Manufacturer
SpaceX/Seattle
Mission
Partially operational Commercial Communications
Bus & Motor
STARLINK, Unknown motor
Mass
260 kg wet, ~248 kg dry
Launch date (UTC)
2020-09-03 (6 years ago)
Launch vehicle
FALCON 9
Launch site
Air Force Eastern Test Range (AFETR)
Object type
Payload
Rocket body
Debris
Shape & HBR
Box + 1 Pan, 10.1 m
Radar Cross Section
13.562 m², Large (>1 m²)

Expand to show TLE details & history
Last TLE update: 7 hours ago

TLE from 7 hours ago
0 STARLINK-1553
1 46348U 20062Z   26121.20278252  .00042222  00000-0  10679-2 0  9992
2 46348  53.0380  59.3919 0002933  16.8486 343.2614 15.39380071313379
Epoch: 2026-05-01T04:52Z
TLE epoch observation values (Epoch: 2026-05-01T04:52:00.409Z)
Latitude
-0.00004°
Longitude
127.25175°
Altitude
446.914 km
Speed
7.646 km/s
True Right ascension
03h 57m 34s
True Declination
0° 00' 00"
Sunlit
Object was in daylight at epoch
Visualization orbit readout
Latitude
Unknown
Longitude
Unknown
Altitude
Unknown
Speed
Unknown
Apparent Right ascension
Unknown
Apparent Declination
Unknown
Sunlit
N/A
Visualization observer readout
Local Sidereal Time
19:19:55
Azimuth
Unknown
Elevation
Unknown
Doppler factor
Unknown
Orbital elements
Apogee altitude
450.221 km
Perigee altitude
446.216 km
Semi-major axis
6,826.356 km
Eccentricity
0.00029
Inclination
53.038°
RAAN
59.3919°
Arg. of periapsis
16.8486°
True anomaly
343.25172°
Mean anomaly
343.2614°
Eccentric anomaly
343.25656°
Mean motion
3.84822 °/min
Orbital period
93.55 mins
BSTAR
0.0010679
Loading maneuver chart data...
Computing Atmospheric mass density...

Documentation

Showing up to 5 results
|